Terminal Aerodrome Forecast
Issued by NWS

Home | Current Version | Previous Version | Text Only | Print | Product List | Glossary On
Versions: 1 2 3 4 5 6 7 8 9 10 11 12 13 14 15 16 17 18 19 20 21 22 23 24 25 26 27 28
000
FTUS46 KOTX 011127
TAFCOE
TAF
KCOE 011127Z 0112/0212 VRB04KT P6SM SCT120
     FM011800 23011G17KT P6SM FEW060
     FM020300 19005KT P6SM FEW250
     FM020600 15005KT P6SM SCT250
      AMD LTD TO CLD AND VIS=

USA.gov is the U.S. government's official web portal to all federal, state and local government web resources and services.